SWA127 KDEN-KCOS

Flight info

Callsign SWA127
Flight time 0h 19m
Altitude 17000
Route DCT LUFSE V389 ADANE/N0382F160 DCT BRK DCT
Aircraft B737/M-SDE2E3FGHIRWXY/LB1

Departure

Time 2026-05-08 17:25
Airport Denver International Airport (KDEN)

Arrival

Time 2026-05-08 17:45
Airport City of Colorado Springs Municipal Airport (KCOS)
Time Latitude Longitude Altitude Speed Heading
2026-05-08 16:59 39.86254 -104.66949 5375 ft 0 kts 360°
2026-05-08 17:16 39.86252 -104.66949 5376 ft 2 kts 360°
2026-05-08 17:16 39.86230 -104.66949 5373 ft 3 kts 360°
2026-05-08 17:17 39.86207 -104.66949 5373 ft 3 kts 360°
2026-05-08 17:17 39.86185 -104.66949 5374 ft 3 kts 360°
2026-05-08 17:17 39.86165 -104.66949 5375 ft 1 kts 360°
2026-05-08 17:17 39.86164 -104.66949 5375 ft 0 kts 360°
2026-05-08 17:19 39.86165 -104.66949 5375 ft 1 kts 360°
2026-05-08 17:20 39.86177 -104.66927 5371 ft 5 kts 82°
2026-05-08 17:20 39.86154 -104.66867 5375 ft 10 kts 119°
2026-05-08 17:20 39.86131 -104.66774 5373 ft 11 kts 102°
2026-05-08 17:20 39.86127 -104.66668 5377 ft 13 kts 90°
2026-05-08 17:21 39.86116 -104.66549 5374 ft 13 kts 104°
2026-05-08 17:21 39.86106 -104.66435 5378 ft 13 kts 90°
2026-05-08 17:21 39.86105 -104.66321 5381 ft 12 kts 91°
2026-05-08 17:21 39.86146 -104.66232 5381 ft 13 kts 19°
2026-05-08 17:22 39.86254 -104.66227 5381 ft 18 kts
2026-05-08 17:22 39.86388 -104.66225 5381 ft 20 kts
2026-05-08 17:22 39.86539 -104.66224 5376 ft 23 kts
2026-05-08 17:22 39.86703 -104.66222 5374 ft 25 kts
2026-05-08 17:23 39.86888 -104.66220 5369 ft 27 kts
2026-05-08 17:23 39.87079 -104.66217 5366 ft 28 kts
2026-05-08 17:23 39.87266 -104.66216 5362 ft 26 kts
2026-05-08 17:23 39.87445 -104.66212 5360 ft 25 kts
2026-05-08 17:24 39.87615 -104.66209 5361 ft 24 kts
2026-05-08 17:24 39.87738 -104.66201 5360 ft 9 kts 28°
2026-05-08 17:24 39.87755 -104.66120 5359 ft 10 kts 90°
2026-05-08 17:24 39.87752 -104.65866 5355 ft 64 kts 90°
2026-05-08 17:25 39.87746 -104.64943 5347 ft 138 kts 90°
2026-05-08 17:25 39.87725 -104.63453 5489 ft 185 kts 90°
2026-05-08 17:25 39.87703 -104.61686 6217 ft 203 kts 91°
2026-05-08 17:25 39.87648 -104.59845 7019 ft 208 kts 91°
2026-05-08 17:26 39.87580 -104.57834 7289 ft 237 kts 91°
2026-05-08 17:26 39.87506 -104.55584 7630 ft 259 kts 91°
2026-05-08 17:26 39.87428 -104.53197 8243 ft 270 kts 91°
2026-05-08 17:26 39.87007 -104.50720 8631 ft 294 kts 118°
2026-05-08 17:27 39.85581 -104.48826 9453 ft 305 kts 152°
2026-05-08 17:27 39.83544 -104.48085 10415 ft 309 kts 176°
2026-05-08 17:27 39.81322 -104.47835 10827 ft 335 kts 178°
2026-05-08 17:27 39.78894 -104.47578 11050 ft 365 kts 177°
2026-05-08 17:28 39.76297 -104.47268 11589 ft 381 kts 176°
2026-05-08 17:28 39.73631 -104.46904 12402 ft 389 kts 176°
2026-05-08 17:28 39.70923 -104.46501 13286 ft 394 kts 176°
2026-05-08 17:28 39.68186 -104.46070 14107 ft 401 kts 175°
2026-05-08 17:29 39.65395 -104.45619 14912 ft 407 kts 175°
2026-05-08 17:29 39.62561 -104.45153 15734 ft 413 kts 175°
2026-05-08 17:29 39.59687 -104.44679 16478 ft 421 kts 175°
2026-05-08 17:29 39.56780 -104.44199 16829 ft 422 kts 175°
2026-05-08 17:30 39.53825 -104.43712 16919 ft 437 kts 175°
2026-05-08 17:30 39.50742 -104.43208 16916 ft 456 kts 175°
2026-05-08 17:30 39.47560 -104.42686 16895 ft 463 kts 175°
2026-05-08 17:30 39.44871 -104.42241 16872 ft 463 kts 175°
2026-05-08 17:31 39.41553 -104.41693 16861 ft 462 kts 175°
2026-05-08 17:31 39.38363 -104.41169 16869 ft 462 kts 175°
2026-05-08 17:31 39.35216 -104.40655 16860 ft 462 kts 175°
2026-05-08 17:31 39.32031 -104.40134 16862 ft 462 kts 175°
2026-05-08 17:32 39.28836 -104.39613 16861 ft 463 kts 175°
2026-05-08 17:32 39.25639 -104.39091 16882 ft 463 kts 175°
2026-05-08 17:32 39.22437 -104.38574 16889 ft 464 kts 176°
2026-05-08 17:32 39.19230 -104.38334 16904 ft 461 kts 184°
2026-05-08 17:33 39.16033 -104.38489 16931 ft 460 kts 186°
2026-05-08 17:33 39.12835 -104.38716 16932 ft 460 kts 187°
2026-05-08 17:33 39.09638 -104.38942 16949 ft 460 kts 186°
2026-05-08 17:33 39.06439 -104.39144 16973 ft 460 kts 186°
2026-05-08 17:34 39.03239 -104.39321 16993 ft 460 kts 186°
2026-05-08 17:34 39.00047 -104.39482 17002 ft 460 kts 185°
2026-05-08 17:34 38.96850 -104.39639 17009 ft 459 kts 185°
2026-05-08 17:34 38.93659 -104.39797 17013 ft 459 kts 185°
2026-05-08 17:35 38.90472 -104.39956 17003 ft 459 kts 185°
2026-05-08 17:35 38.87280 -104.40119 16998 ft 459 kts 185°
2026-05-08 17:35 38.84088 -104.40283 16989 ft 459 kts 185°
2026-05-08 17:35 38.80899 -104.40447 16960 ft 457 kts 185°
2026-05-08 17:36 38.78801 -104.40554 16456 ft 457 kts 185°
2026-05-08 17:36 38.74671 -104.40763 15463 ft 439 kts 185°
2026-05-08 17:36 38.71677 -104.40914 14475 ft 422 kts 185°
2026-05-08 17:36 38.68800 -104.41060 13555 ft 406 kts 185°
2026-05-08 17:37 38.66030 -104.41201 12567 ft 391 kts 184°
2026-05-08 17:37 38.63391 -104.41465 11731 ft 375 kts 194°
2026-05-08 17:37 38.61769 -104.42219 11280 ft 361 kts 213°
2026-05-08 17:37 38.59522 -104.44961 10999 ft 321 kts 239°
2026-05-08 17:38 38.58848 -104.46585 10894 ft 304 kts 248°
2026-05-08 17:38 38.58116 -104.49007 10743 ft 282 kts 255°
2026-05-08 17:38 38.57654 -104.51357 10631 ft 263 kts 260°
2026-05-08 17:38 38.57338 -104.53610 10542 ft 251 kts 263°
2026-05-08 17:39 38.57083 -104.55782 10469 ft 245 kts 264°
2026-05-08 17:39 38.56865 -104.57930 10375 ft 243 kts 265°
2026-05-08 17:39 38.56687 -104.60078 10258 ft 243 kts 267°
2026-05-08 17:39 38.56583 -104.62228 10139 ft 242 kts 270°
2026-05-08 17:40 38.56592 -104.64374 10001 ft 242 kts 281°
2026-05-08 17:40 38.57353 -104.66234 9882 ft 238 kts 313°
2026-05-08 17:40 38.58334 -104.67948 9682 ft 239 kts 302°
2026-05-08 17:40 38.59452 -104.69459 9521 ft 235 kts 333°
2026-05-08 17:41 38.61030 -104.69781 9289 ft 236 kts 10°
2026-05-08 17:41 38.62615 -104.69198 8991 ft 238 kts 14°
2026-05-08 17:41 38.64227 -104.68818 8674 ft 231 kts
2026-05-08 17:41 38.65772 -104.68629 8371 ft 214 kts
2026-05-08 17:42 38.67181 -104.68592 8109 ft 197 kts 359°
2026-05-08 17:42 38.68499 -104.68594 7987 ft 183 kts 359°
2026-05-08 17:42 38.69727 -104.68596 7751 ft 169 kts 360°
2026-05-08 17:42 38.70886 -104.68592 7562 ft 167 kts
2026-05-08 17:43 38.72004 -104.68590 7375 ft 155 kts
2026-05-08 17:43 38.73042 -104.68589 7185 ft 145 kts
2026-05-08 17:43 38.74055 -104.68588 6977 ft 145 kts
2026-05-08 17:43 38.75064 -104.68586 6765 ft 146 kts
2026-05-08 17:44 38.76077 -104.68586 6560 ft 146 kts
2026-05-08 17:44 38.77086 -104.68583 6327 ft 144 kts
2026-05-08 17:44 38.78085 -104.68580 6141 ft 142 kts
2026-05-08 17:44 38.78977 -104.68578 6130 ft 112 kts 360°
2026-05-08 17:45 38.79638 -104.68578 6140 ft 78 kts 360°
2026-05-08 17:45 38.80027 -104.68591 6146 ft 33 kts 347°
2026-05-08 17:45 38.80218 -104.68683 6149 ft 22 kts 327°
2026-05-08 17:45 38.80274 -104.68798 6150 ft 14 kts 284°
2026-05-08 17:46 38.80278 -104.68919 6150 ft 13 kts 269°
2026-05-08 17:46 38.80278 -104.69041 6150 ft 14 kts 271°
2026-05-08 17:46 38.80279 -104.69183 6150 ft 18 kts 270°
2026-05-08 17:46 38.80279 -104.69362 6150 ft 22 kts 270°
2026-05-08 17:47 38.80279 -104.69555 6150 ft 21 kts 270°
2026-05-08 17:47 38.80268 -104.69704 6154 ft 12 kts 227°
2026-05-08 17:47 38.80189 -104.69725 6149 ft 12 kts 181°
2026-05-08 17:47 38.80130 -104.69727 6148 ft 13 kts 181°
2026-05-08 17:48 38.80075 -104.69834 6147 ft 13 kts 272°
2026-05-08 17:48 38.80041 -104.69921 6146 ft 10 kts 189°
2026-05-08 17:48 38.79972 -104.69921 6144 ft 10 kts 180°
2026-05-08 17:48 38.79902 -104.69926 6143 ft 9 kts 205°
2026-05-08 17:49 38.79889 -104.69994 6143 ft 4 kts 269°
2026-05-08 17:49 38.79889 -104.70010 6143 ft 2 kts 269°
2026-05-08 17:49 38.79889 -104.70022 6143 ft 0 kts 269°
2026-05-08 17:49 38.79889 -104.70023 6143 ft 0 kts 269°